カタログに戻る

STARLINK-1090

運用中通信VLEO
NORAD 44968·PAYLOAD·🇺🇸 United States

打ち上げ Jan 7, 2020 から Cape Canaveral Space Force Station

Loading…

次のパス (今後24時間)

TLE

最新Source: CelesTrak SupGP

元期: Sep 14, 2026, 20:12 UTC

1 44968C 20001BG  26257.84215278  .00038397  00000+0  41556-3 0  2573
2 44968  53.1410 123.1297 0001310 127.8025  59.6720 15.62916183    14

AllMySatでSTARLINK-1090をリアルタイム追跡

Download on the App Store